TimeEST,TemperatureF,Dew PointF,Humidity,Sea Level PressureIn,VisibilityMPH,Wind Direction,Wind SpeedMPH,Gust SpeedMPH,PrecipitationIn,Events,Conditions,WindDirDegrees,DateUTC
12:15 AM,28.4,23.0,80,29.81,10.0,Calm,Calm,-,N/A,,Mostly Cloudy,0,2013-01-20 05:15:00
12:35 AM,30.2,24.8,80,29.81,10.0,Calm,Calm,-,N/A,,Overcast,0,2013-01-20 05:35:00
12:55 AM,30.2,24.8,80,29.81,10.0,NE,5.8,-,N/A,,Overcast,50,2013-01-20 05:55:00
1:35 AM,30.2,24.8,80,29.78,10.0,Calm,Calm,-,N/A,,Mostly Cloudy,0,2013-01-20 06:35:00
1:55 AM,30.2,24.8,80,29.78,10.0,Calm,Calm,-,N/A,,Overcast,0,2013-01-20 06:55:00
2:15 AM,32.0,24.8,75,29.78,10.0,Calm,Calm,-,N/A,,Overcast,0,2013-01-20 07:15:00
2:35 AM,30.2,24.8,80,29.76,10.0,Calm,Calm,-,N/A,,Scattered Clouds,0,2013-01-20 07:35:00
2:55 AM,30.2,24.8,80,29.74,10.0,Calm,Calm,-,N/A,,Partly Cloudy,0,2013-01-20 07:55:00
3:15 AM,28.4,23.0,80,29.74,10.0,Calm,Calm,-,N/A,,Clear,0,2013-01-20 08:15:00
3:35 AM,28.4,23.0,80,29.73,10.0,South,3.5,-,N/A,,Partly Cloudy,190,2013-01-20 08:35:00
4:15 AM,26.6,23.0,86,29.71,10.0,Calm,Calm,-,N/A,,Clear,0,2013-01-20 09:15:00
4:35 AM,26.6,23.0,86,29.69,10.0,Calm,Calm,-,N/A,,Clear,0,2013-01-20 09:35:00
4:55 AM,26.6,23.0,86,29.68,8.0,Calm,Calm,-,N/A,,Clear,0,2013-01-20 09:55:00
5:15 AM,26.6,21.2,80,29.66,9.0,Calm,Calm,-,N/A,,Clear,0,2013-01-20 10:15:00
5:35 AM,26.6,23.0,86,29.64,10.0,South,3.5,-,N/A,,Clear,180,2013-01-20 10:35:00
5:55 AM,28.4,23.0,80,29.62,10.0,SSE,3.5,-,N/A,,Clear,160,2013-01-20 10:55:00
6:15 AM,26.6,19.4,74,29.63,10.0,Calm,Calm,-,N/A,,Clear,0,2013-01-20 11:15:00
6:55 AM,26.6,23.0,86,29.59,10.0,Calm,Calm,-,N/A,,Clear,0,2013-01-20 11:55:00
7:15 AM,30.2,24.8,80,29.59,10.0,Calm,Calm,-,N/A,,Clear,0,2013-01-20 12:15:00
7:35 AM,28.4,23.0,80,29.59,10.0,Calm,Calm,-,N/A,,Clear,0,2013-01-20 12:35:00
7:55 AM,32.0,24.8,75,29.59,10.0,SSE,3.5,-,N/A,,Clear,150,2013-01-20 12:55:00
8:15 AM,28.4,21.2,74,29.60,10.0,Calm,Calm,-,N/A,,Clear,0,2013-01-20 13:15:00
8:35 AM,30.2,26.6,86,29.60,10.0,NNE,3.5,-,N/A,,Clear,20,2013-01-20 13:35:00
8:55 AM,39.2,28.4,65,29.58,10.0,South,13.8,20.7,N/A,,Clear,190,2013-01-20 13:55:00
9:15 AM,41.0,26.6,57,29.57,10.0,South,11.5,20.7,N/A,,Clear,190,2013-01-20 14:15:00
9:55 AM,42.8,26.6,53,29.55,10.0,SSW,15.0,26.5,N/A,,Clear,200,2013-01-20 14:55:00
10:15 AM,44.6,26.6,49,29.55,10.0,SSW,19.6,24.2,N/A,,Clear,200,2013-01-20 15:15:00
10:35 AM,44.6,26.6,49,29.55,10.0,SSW,12.7,26.5,N/A,,Partly Cloudy,210,2013-01-20 15:35:00
10:55 AM,44.6,26.6,49,29.55,10.0,SW,13.8,25.3,N/A,,Mostly Cloudy,220,2013-01-20 15:55:00
11:15 AM,44.6,26.6,49,29.55,10.0,SW,16.1,23.0,N/A,,Overcast,230,2013-01-20 16:15:00
11:35 AM,44.6,26.6,49,29.56,10.0,WSW,15.0,20.7,N/A,,Overcast,240,2013-01-20 16:35:00
11:55 AM,42.8,28.4,57,29.58,10.0,West,12.7,23.0,N/A,,Overcast,260,2013-01-20 16:55:00
12:15 PM,42.8,28.4,57,29.60,10.0,West,10.4,19.6,N/A,,Overcast,280,2013-01-20 17:15:00
12:36 PM,41.0,24.8,53,29.60,10.0,West,17.3,27.6,N/A,,Mostly Cloudy,260,2013-01-20 17:36:00
1:35 PM,41.0,21.2,45,29.61,10.0,WSW,9.2,16.1,N/A,,Clear,240,2013-01-20 18:35:00
1:55 PM,42.8,17.6,36,29.61,10.0,WNW,17.3,28.8,N/A,,Partly Cloudy,290,2013-01-20 18:55:00
2:15 PM,42.8,12.2,29,29.62,10.0,WNW,13.8,26.5,N/A,,Clear,290,2013-01-20 19:15:00
2:35 PM,42.8,10.4,27,29.64,10.0,WNW,19.6,26.5,N/A,,Clear,300,2013-01-20 19:35:00
2:55 PM,41.0,8.6,26,29.66,10.0,WNW,12.7,25.3,N/A,,Clear,300,2013-01-20 19:55:00
3:15 PM,39.2,10.4,31,29.67,10.0,NW,9.2,23.0,N/A,,Clear,310,2013-01-20 20:15:00
3:35 PM,39.2,12.2,33,29.69,10.0,WSW,18.4,26.5,N/A,,Clear,250,2013-01-20 20:35:00
3:56 PM,37.4,12.2,36,29.73,10.0,West,16.1,24.2,N/A,,Clear,270,2013-01-20 20:56:00
4:35 PM,35.6,12.2,38,29.77,10.0,West,8.1,20.7,N/A,,Partly Cloudy,280,2013-01-20 21:35:00
4:55 PM,33.8,10.4,38,29.78,10.0,WNW,12.7,24.2,N/A,,Mostly Cloudy,290,2013-01-20 21:55:00
5:15 PM,33.8,10.4,38,29.80,10.0,West,13.8,21.9,N/A,,Scattered Clouds,270,2013-01-20 22:15:00
5:35 PM,32.0,10.4,41,29.80,10.0,West,10.4,20.7,N/A,,Mostly Cloudy,260,2013-01-20 22:35:00
5:55 PM,30.2,10.4,44,29.81,10.0,West,12.7,27.6,N/A,,Overcast,260,2013-01-20 22:55:00
6:15 PM,30.2,8.6,40,29.83,10.0,West,13.8,20.7,N/A,,Scattered Clouds,280,2013-01-20 23:15:00
6:35 PM,30.2,6.8,37,29.83,10.0,West,11.5,25.3,N/A,,Partly Cloudy,270,2013-01-20 23:35:00
6:55 PM,28.4,6.8,40,29.83,10.0,WNW,9.2,25.3,N/A,,Partly Cloudy,290,2013-01-20 23:55:00
7:35 PM,28.4,8.6,43,29.85,10.0,West,11.5,25.3,N/A,,Scattered Clouds,270,2013-01-21 00:35:00
7:55 PM,28.4,8.6,43,29.86,10.0,WNW,10.4,18.4,N/A,,Overcast,290,2013-01-21 00:55:00
8:15 PM,28.4,6.8,40,29.86,10.0,West,10.4,24.2,N/A,,Overcast,270,2013-01-21 01:15:00
8:35 PM,28.4,8.6,43,29.87,10.0,WNW,10.4,24.2,N/A,,Overcast,290,2013-01-21 01:35:00
8:55 PM,28.4,8.6,43,29.88,10.0,West,9.2,23.0,N/A,,Overcast,260,2013-01-21 01:55:00
9:15 PM,28.4,10.4,47,29.89,10.0,West,11.5,16.1,N/A,,Overcast,260,2013-01-21 02:15:00
9:35 PM,26.6,10.4,51,29.89,10.0,WSW,10.4,18.4,N/A,,Overcast,250,2013-01-21 02:35:00
9:55 PM,26.6,10.4,51,29.90,10.0,West,8.1,-,N/A,,Overcast,270,2013-01-21 02:55:00
10:35 PM,26.6,8.6,47,29.92,10.0,West,10.4,21.9,N/A,,Overcast,260,2013-01-21 03:35:00
10:55 PM,26.6,8.6,47,29.93,10.0,West,11.5,18.4,N/A,,Overcast,270,2013-01-21 03:55:00
11:15 PM,26.6,8.6,47,29.93,10.0,WNW,9.2,-,N/A,,Overcast,290,2013-01-21 04:15:00
11:55 PM,24.8,6.8,46,29.95,10.0,WNW,10.4,16.1,N/A,,Overcast,290,2013-01-21 04:55:00